FW1589 Weather Reports


time (UTC)temp
C
wind
direction
speed
KPH
gust
KPH
rain 1hr
cm
rain 24hr
cm
rain mn
cm
humidity
%
barometer
mb
20260506233435 20 241 6.4 14.5 0.00 0.00 0.00 67 1001.1
20260506232929 20 142 6.4 14.5 0.00 0.00 0.00 66 1001.0
20260506231917 20 265 4.8 11.3 0.00 0.00 0.00 68 1001.1
20260506231412 20 182 4.8 9.7 0.00 0.00 0.00 67 1001.2
20260506230906 20 231 4.8 11.3 0.00 0.00 0.00 67 1001.2
20260506225854 20 269 6.4 14.5 0.00 0.00 0.00 66 1001.2
20260506225348 20 227 6.4 12.9 0.00 0.00 0.00 67 1001.3
20260506224842 20 213 4.8 12.9 0.00 0.00 0.00 67 1001.3
20260506224336 20 172 4.8 11.3 0.00 0.00 0.00 65 1001.5
20260506223829 20 267 6.4 14.5 0.00 0.00 0.00 66 1001.4
20260506223324 20 160 6.4 14.5 0.00 0.00 0.00 65 1001.5
20260506222312 21 185 4.8 14.5 0.00 0.00 0.00 67 1001.6
20260506221806 20 209 6.4 16.1 0.00 0.00 0.00 66 1001.7
20260506221259 20 193 6.4 16.1 0.00 0.00 0.00 67 1001.8
20260506220754 20 185 6.4 16.1 0.00 0.00 0.00 68 1001.9
20260506220247 20 215 6.4 12.9 0.00 0.00 0.00 68 1001.9
20260506215741 20 202 6.4 12.9 0.00 0.00 0.00 68 1002.0
20260506215236 20 196 6.4 12.9 0.00 0.00 0.00 68 1002.1
20260506214730 20 213 6.4 14.5 0.00 0.00 0.00 67 1002.0
20260506213718 20 267 6.4 14.5 0.00 0.00 0.00 67 1002.1
20260506213218 20 196 4.8 12.9 0.00 0.00 0.00 67 1002.3
20260506212720 20 214 4.8 12.9 0.00 0.00 0.00 67 1002.4
20260506212218 20 206 4.8 12.9 0.00 0.00 0.00 66 1002.3
20260506211718 20 235 6.4 12.9 0.00 0.00 0.00 68 1002.3
20260506211218 20 207 4.8 11.3 0.00 0.00 0.00 66 1002.3
20260506210215 20 240 4.8 11.3 0.00 0.00 0.00 67 1002.2
20260506205716 20 208 4.8 12.9 0.00 0.00 0.00 67 1002.2
20260506205215 20 261 4.8 12.9 0.00 0.00 0.00 67 1002.3
20260506204715 20 190 4.8 11.3 0.00 0.00 0.00 67 1002.3
20260506204214 20 283 6.4 11.3 0.00 0.00 0.00 67 1002.4
20260506203716 20 217 4.8 11.3 0.00 0.00 0.00 67 1002.4
20260506203215 20 225 4.8 11.3 0.00 0.00 0.00 67 1002.5
20260506202715 20 211 4.8 11.3 0.00 0.00 0.00 66 1002.5
20260506202216 20 265 4.8 11.3 0.00 0.00 0.00 67 1002.5
20260506201716 20 158 4.8 11.3 0.00 0.00 0.00 66 1002.6
20260506201216 20 205 4.8 11.3 0.00 0.00 0.00 66 1002.6
20260506200710 20 255 4.8 11.3 0.00 0.00 0.00 67 1002.6
20260506200204 20 242 4.8 12.9 0.00 0.00 0.00 66 1002.7
20260506195658 20 221 4.8 12.9 0.00 0.00 0.00 66 1002.8
20260506193634 20 175 3.2 9.7 0.00 0.00 0.00 66 1002.9
20260506193128 20 217 3.2 6.4 0.00 0.00 0.00 68 1002.9
20260506192628 19 218 3.2 8.0 0.00 0.00 0.00 69 1003.0
20260506191625 19 158 4.8 8.0 0.00 0.00 0.00 67 1003.0
20260506191125 19 245 3.2 9.7 0.00 0.00 0.00 68 1003.1
20260506190625 19 247 4.8 12.9 0.00 0.00 0.00 70 1003.2
20260506190125 18 263 4.8 14.5 0.00 0.00 0.00 68 1003.2
20260506185625 18 225 4.8 14.5 0.00 0.00 0.00 70 1003.3
20260506185125 18 267 4.8 11.3 0.00 0.00 0.00 70 1003.2
20260506184125 18 209 4.8 11.3 0.00 0.00 0.00 71 1003.2
20260506183623 18 242 4.8 11.3 0.00 0.00 0.00 71 1003.3
20260506181620 17 242 3.2 9.7 0.00 0.00 0.00 72 1003.3
20260506181120 17 280 4.8 9.7 0.00 0.00 0.00 72 1003.2
20260506180619 17 244 4.8 9.7 0.00 0.00 0.00 72 1003.1
20260506180118 17 278 3.2 8.0 0.00 0.00 0.00 72 1003.2
20260506175618 17 206 3.2 9.7 0.00 0.00 0.00 73 1003.2
20260506175120 17 222 3.2 9.7 0.00 0.00 0.00 73 1003.2
20260506174618 17 242 3.2 11.3 0.00 0.00 0.00 74 1003.1
20260506173620 17 242 1.6 8.0 0.00 0.00 0.00 75 1003.2
20260506172616 16 213 3.2 9.7 0.00 0.00 0.00 75 1003.2
20260506172114 16 180 3.2 6.4 0.00 0.00 0.00 75 1003.4
20260506171615 16 259 3.2 9.7 0.00 0.00 0.00 76 1003.3
20260506171115 16 211 4.8 12.9 0.00 0.00 0.00 77 1003.4
20260506170115 15 223 1.6 8.0 0.00 0.00 0.00 78 1003.2
20260506165115 15 288 3.2 9.7 0.00 0.00 0.00 79 1003.1
20260506164612 15 277 3.2 9.7 0.00 0.00 0.00 79 1003.1
20260506164111 15 230 1.6 6.4 0.00 0.00 0.00 79 1003.2
20260506163611 15 223 3.2 6.4 0.00 0.00 0.00 79 1003.2
20260506163111 15 273 3.2 6.4 0.00 0.00 0.00 80 1003.2
20260506162110 15 185 1.6 6.4 0.00 0.00 0.00 80 1003.2
20260506161612 14 231 3.2 6.4 0.00 0.00 0.00 81 1003.2
20260506161111 14 242 1.6 6.4 0.00 0.00 0.00 81 1003.2
20260506160610 14 276 1.6 6.4 0.00 0.00 0.00 83 1003.1
20260506155056 13 206 0.0 4.8 0.00 0.03 0.00 83 1003.2
20260506154551 13 205 0.0 3.2 0.00 0.03 0.00 83 1003.3
20260506154045 13 205 1.6 4.8 0.00 0.03 0.00 84 1003.2
20260506153539 13 205 1.6 4.8 0.00 0.03 0.00 84 1003.2
20260506153033 13 190 1.6 6.4 0.00 0.03 0.00 84 1003.2
20260506152527 13 188 1.6 6.4 0.00 0.03 0.00 84 1003.2
20260506152021 13 170 1.6 6.4 0.00 0.03 0.00 85 1003.1
20260506151515 13 191 0.0 4.8 0.00 0.03 0.00 85 1003.1
20260506150503 12 238 0.0 0.0 0.00 0.03 0.00 85 1003.1
20260506145957 12 240 0.0 0.0 0.00 0.03 0.00 85 1003.1
20260506145451 12 239 0.0 0.0 0.00 0.03 0.00 86 1003.1
20260506144945 12 238 0.0 0.0 0.00 0.03 0.00 86 1003.0
20260506144439 12 239 0.0 0.0 0.00 0.03 0.00 85 1003.1
20260506143933 12 239 0.0 0.0 0.00 0.03 0.00 86 1003.0
20260506143427 12 280 0.0 0.0 0.00 0.03 0.00 86 1002.9
20260506142921 12 281 0.0 0.0 0.00 0.03 0.00 86 1002.9
20260506142415 12 282 0.0 0.0 0.00 0.03 0.00 86 1002.8
20260506141909 12 283 0.0 0.0 0.00 0.03 0.00 86 1002.7
20260506141402 12 283 0.0 0.0 0.00 0.03 0.00 86 1002.8
20260506140856 12 283 0.0 0.0 0.00 0.03 0.00 86 1002.8
20260506140350 12 283 0.0 0.0 0.00 0.03 0.00 86 1002.6
20260506135845 12 283 0.0 0.0 0.00 0.03 0.00 85 1002.6
20260506135338 12 283 0.0 0.0 0.00 0.03 0.00 85 1002.6
20260506134833 12 283 0.0 0.0 0.00 0.03 0.00 85 1002.6
20260506134327 12 283 0.0 0.0 0.00 0.03 0.00 85 1002.5
20260506133314 12 283 0.0 0.0 0.00 0.03 0.00 85 1002.6
20260506132809 12 283 0.0 0.0 0.00 0.03 0.00 85 1002.5
20260506132306 12 283 0.0 0.0 0.00 0.03 0.00 85 1002.5
20260506131757 12 282 0.0 0.0 0.00 0.03 0.00 85 1002.5
20260506131251 12 282 0.0 0.0 0.00 0.03 0.00 84 1002.4
20260506130745 12 282 0.0 0.0 0.00 0.03 0.00 84 1002.4
20260506130238 12 282 0.0 0.0 0.00 0.03 0.00 84 1002.3
20260506125733 12 282 0.0 0.0 0.00 0.03 0.00 84 1002.3
20260506125227 12 282 0.0 0.0 0.00 0.03 0.00 84 1002.3
20260506124720 12 282 0.0 0.0 0.00 0.03 0.00 84 1002.3
20260506124215 12 282 0.0 0.0 0.00 0.03 0.00 84 1002.2
20260506123709 12 282 0.0 0.0 0.00 0.03 0.00 84 1002.2
20260506122658 12 282 0.0 0.0 0.00 0.03 0.00 84 1002.2
20260506122151 12 282 0.0 0.0 0.00 0.03 0.00 84 1002.1
20260506121644 12 282 0.0 0.0 0.00 0.03 0.00 84 1002.2
20260506120633 12 282 0.0 0.0 0.00 0.03 0.00 84 1002.1
20260506120127 12 282 0.0 0.0 0.00 0.03 0.00 84 1002.1
20260506115621 12 282 0.0 0.0 0.00 0.03 0.00 84 1002.0
20260506115116 12 282 0.0 0.0 0.00 0.03 0.00 84 1002.0
20260506114609 12 282 0.0 0.0 0.00 0.03 0.00 84 1002.0
20260506114103 12 282 0.0 0.0 0.00 0.03 0.00 84 1001.9
20260506113051 12 282 0.0 0.0 0.00 0.03 0.00 84 1002.0
20260506112544 12 282 0.0 0.0 0.00 0.03 0.00 84 1001.9
20260506112038 12 282 0.0 0.0 0.00 0.03 0.00 84 1001.9
20260506111533 12 282 0.0 0.0 0.00 0.03 0.00 84 1001.8
20260506110015 12 282 0.0 0.0 0.00 0.03 0.00 84 1001.7
20260506105509 12 282 0.0 0.0 0.00 0.03 0.00 84 1001.7
20260506105002 12 282 0.0 0.0 0.00 0.03 0.00 84 1001.7
20260506104457 12 282 0.0 0.0 0.00 0.03 0.00 83 1001.7
20260506103951 12 282 0.0 0.0 0.00 0.03 0.00 83 1001.7
20260506103445 12 286 0.0 0.0 0.00 0.03 0.00 83 1001.6
20260506102939 12 286 0.0 0.0 0.00 0.03 0.00 83 1001.6
20260506102432 12 286 0.0 0.0 0.00 0.03 0.00 83 1001.5
20260506101926 12 286 0.0 0.0 0.00 0.03 0.00 83 1001.5
20260506101420 12 286 0.0 0.0 0.00 0.03 0.00 83 1001.5
20260506100915 12 286 0.0 0.0 0.00 0.03 0.00 83 1001.5
20260506100408 12 286 0.0 0.0 0.00 0.03 0.00 83 1001.5
20260506095903 12 286 0.0 0.0 0.00 0.03 0.00 84 1001.5
20260506094851 12 277 0.0 0.0 0.00 0.03 0.00 84 1001.5
20260506094345 12 277 0.0 0.0 0.00 0.03 0.00 84 1001.6
20260506093838 12 277 0.0 0.0 0.00 0.03 0.00 84 1001.7
20260506093333 12 240 0.0 0.0 0.00 0.03 0.00 84 1001.6
20260506092827 12 259 0.0 0.0 0.00 0.03 0.00 84 1001.6
20260506092321 12 259 0.0 0.0 0.00 0.03 0.00 84 1001.6
20260506091815 12 259 0.0 0.0 0.00 0.05 0.00 84 1001.6
20260506090256 12 259 0.0 3.2 0.00 0.08 0.00 83 1001.5
20260506085751 12 257 0.0 3.2 0.00 0.08 0.00 84 1001.6
20260506085244 12 250 0.0 4.8 0.00 0.10 0.00 83 1001.6
20260506084738 12 268 0.0 4.8 0.00 0.10 0.00 83 1001.6
20260506084232 12 265 0.0 1.6 0.00 0.13 0.00 83 1001.5
20260506083726 12 240 0.0 0.0 0.00 0.13 0.00 83 1001.4
20260506083220 12 264 0.0 0.0 0.00 0.13 0.00 83 1001.6
20260506082715 12 244 0.0 0.0 0.00 0.13 0.00 83 1001.7
20260506082208 12 244 0.0 0.0 0.00 0.13 0.00 83 1001.6
20260506081703 12 244 0.0 0.0 0.00 0.13 0.00 83 1001.7
20260506081200 12 242 0.0 0.0 0.00 0.13 0.00 83 1001.6
20260506080650 12 242 0.0 0.0 0.00 0.15 0.00 83 1001.6
20260506080144 12 242 0.0 0.0 0.00 0.15 0.00 83 1001.6
20260506073134 12 276 0.0 0.0 0.00 0.33 0.00 83 1001.4
20260506072635 12 276 0.0 0.0 0.00 0.33 0.00 83 1001.4
20260506072131 12 276 0.0 4.8 0.00 0.33 0.00 83 1001.3
20260506071633 12 275 1.6 4.8 0.00 0.36 0.00 83 1001.3
20260506071131 12 265 0.0 3.2 0.00 0.36 0.00 84 1001.3
20260506070631 12 278 0.0 0.0 0.00 0.38 0.00 84 1001.2
20260506070132 12 278 0.0 0.0 0.00 0.38 0.00 84 1001.1
20260506062129 12 241 1.6 4.8 0.00 0.41 0.38 84 1000.9
20260506061628 12 242 1.6 4.8 0.00 0.43 0.38 84 1000.9
20260506060623 12 207 1.6 4.8 0.00 0.43 0.38 85 1000.8
20260506060124 12 225 0.0 3.2 0.00 0.46 0.38 85 1000.9
20260506051119 12 227 1.6 9.7 0.00 0.64 0.38 86 1000.5
20260506050620 12 205 1.6 9.7 0.00 0.64 0.38 86 1000.6
20260506050119 12 248 1.6 8.0 0.00 0.64 0.38 87 1000.5
20260506045115 12 203 1.6 3.2 0.00 0.66 0.38 87 1000.4
20260506044615 12 203 0.0 3.2 0.00 0.69 0.38 87 1000.4
20260506043115 12 203 0.0 1.6 0.00 0.74 0.38 87 1000.1
20260506042614 12 203 0.0 3.2 0.00 0.74 0.38 87 1000.1
20260506042114 12 203 0.0 3.2 0.00 0.74 0.38 86 1000.1
20260506041607 12 241 0.0 0.0 0.00 0.76 0.38 86 1000.0
20260506041102 12 241 0.0 0.0 0.00 0.76 0.38 86 1000.0
20260506040053 12 242 0.0 1.6 0.00 0.79 0.38 86 999.9
20260506035553 12 242 0.0 1.6 0.00 0.79 0.38 86 999.9
20260506035053 12 248 0.0 3.2 0.00 0.79 0.38 86 999.7
20260506034549 12 248 1.6 4.8 0.00 0.79 0.38 86 999.6
20260506033549 12 228 1.6 4.8 0.00 0.79 0.38 85 999.5
20260506033049 13 221 1.6 8.0 0.00 0.79 0.38 85 999.3
20260506032052 13 238 0.0 4.8 0.00 0.79 0.38 85 999.2
20260506031045 13 246 1.6 11.3 0.00 0.79 0.38 85 999.1
20260506030545 13 242 3.2 11.3 0.00 0.79 0.38 85 998.9
20260506025045 13 220 1.6 6.4 0.00 0.79 0.38 85 998.8
20260506024545 13 255 3.2 12.9 0.00 0.79 0.38 85 998.7
20260506024044 13 208 3.2 12.9 0.00 0.79 0.38 85 998.8
20260506023030 13 215 3.2 9.7 0.00 0.79 0.38 85 998.8
20260506022018 13 241 1.6 8.0 0.00 0.79 0.38 85 998.7
20260506021512 13 277 3.2 12.9 0.00 0.79 0.38 85 998.6
20260506021005 13 228 4.8 12.9 0.00 0.79 0.38 85 998.6
20260506020459 13 208 4.8 12.9 0.00 0.79 0.38 84 998.5
20260506015954 13 243 4.8 11.3 0.00 0.79 0.38 84 998.4
20260506015448 13 233 4.8 11.3 0.00 0.79 0.38 84 998.4
20260506014944 13 231 4.8 12.9 0.00 0.79 0.38 84 998.4
20260506014435 13 222 4.8 12.9 0.00 0.79 0.38 83 998.3
20260506013930 14 238 4.8 12.9 0.00 0.79 0.38 83 998.4
20260506013426 14 188 4.8 14.5 0.00 0.79 0.38 83 998.4
20260506012918 14 196 4.8 14.5 0.00 0.79 0.38 82 998.3
20260506012412 14 266 4.8 14.5 0.00 0.79 0.38 82 998.5
20260506011905 14 190 4.8 14.5 0.00 0.79 0.38 82 998.4
20260506011400 14 209 4.8 9.7 0.00 0.79 0.38 82 998.5
20260506010854 14 185 4.8 12.9 0.00 0.79 0.38 82 998.5
20260506010348 14 238 4.8 12.9 0.00 0.79 0.38 82 998.4
20260506005336 15 269 4.8 12.9 0.00 0.79 0.38 82 998.4
20260506004830 15 193 4.8 12.9 0.00 0.79 0.38 82 998.3
20260506004324 15 197 6.4 12.9 0.00 0.79 0.38 82 998.3
20260506003817 15 208 6.4 12.9 0.00 0.79 0.38 81 998.3
20260506003312 15 221 4.8 14.5 0.00 0.79 0.38 81 998.3
20260506002259 15 244 3.2 11.3 0.00 0.79 0.38 81 998.3
20260506001754 15 256 4.8 9.7 0.00 0.79 0.38 82 998.1
20260506001248 15 202 4.8 14.5 0.00 0.79 0.38 82 998.1
20260506000742 15 224 6.4 14.5 0.00 0.79 0.38 82 998.1
20260506000236 14 212 6.4 14.5 0.00 0.79 0.38 82 998.1
20260505235730 15 211 4.8 14.5 0.00 0.79 0.38 83 998.1
20260505235224 14 205 4.8 14.5 0.00 0.79 0.38 83 998.1
20260505234718 14 248 4.8 11.3 0.00 0.79 0.38 84 998.2
20260505234212 14 239 4.8 11.3 0.00 0.79 0.38 84 998.2
20260505233705 14 202 6.4 16.1 0.00 0.79 0.38 83 998.1